Regional Weather Roundup
Issued by NWS Newport/Morehead, NC

Current Version | Previous Version | Text Only | Print | Product List | Glossary Off
Versions: 1 2 3 4 5 6 7 8 9 10 11 12 13 14 15 16 17 18 19 20 21 22 23 24 25 26 27 28 29 30 31 32 33 34 35 36 37 38 39 40 41 42 43 44 45 46 47 48 49 50
382 ASUS42 KMHX 201312 RWRMHX WEATHER ROUNDUP FOR EASTERN NORTH CAROLINA NATIONAL WEATHER SERVICE NEWPORT/MOREHEAD CITY NC 800 AM EST MON FEB 20 2017 NOTE: "FAIR" INDICATES FEW OR NO CLOUDS BELOW 12,000 FEET WITH NO SIGNIFICANT WEATHER AND/OR OBSTRUCTIONS TO VISIBILITY NCZ015>017-031-032-045>047-102-103-201400- NORTH COAST CITY SKY/WX TMP DP RH WIND PRES REMARKS EDENTON SUNNY 49 44 83 N5 30.18R ELIZABETH CITY SUNNY 52 44 74 N8 30.18R KITTY HAWK NOT AVBL MANTEO SUNNY 55 44 67 N14 30.17R $$ NCZ045>047-081-094-103-104-201400- CENTRAL COAST CITY SKY/WX TMP DP RH WIND PRES REMARKS FRISCO SUNNY 56 47 71 N7 30.16R HAZE $$ NCZ095-097-098-100-101-201400- SOUTHERN COAST CITY SKY/WX TMP DP RH WIND PRES REMARKS BEAUFORT SUNNY 55 46 71 NE12 30.16R CEDAR ISLAND NOT AVBL JACKSONVILLE MOSUNNY 53 46 77 N6 30.17R PINEY ISLAND SUNNY N/A N/A N/A N12 30.17R WILMINGTON MOSUNNY 53 46 77 NE7 30.16R $$ NCZ011>013-027>030-043-044-078>080-089-090>093-098-201400- COASTAL PLAIN CITY SKY/WX TMP DP RH WIND PRES REMARKS AHOSKIE N/A 44 40 86 N3 30.19R CLINTON SUNNY 46 44 91 CALM 30.18R ELIZABETHTOWN SUNNY 50 44 79 CALM 30.17S GOLDSBORO SUNNY 51 46 81 NE7 30.16R GREENVILLE NOT AVBL HAVELOCK SUNNY 55 44 66 NE12 30.18R KENANSVILLE NOT AVBL KINSTON SUNNY 52 45 76 N5 30.19R NEW BERN MOSUNNY 52 46 80 NE7 30.18R RICHLANDS NOT AVBL ROCKY MOUNT SUNNY 48 45 89 NE5 30.18S WASHINGTON SUNNY 45 43 91 CALM 30.18S WHITEVILLE SUNNY 50 44 80 CALM 30.17R $$ AMZ130-135-150-152-154-156-158-170-250-252-270-ANZ085-086-088-633-658-670-201400- MARINE OBSERVATIONS STATION/POSITION TIME TEMP WIND PRES WAVE SWELL AIR SEA DIR/SP/G HT/PER HT/PER (UTC) (F) (DEG/KT/KT) (MB) (FT/S) (FT/S) CHESAPEAKE LIGHT NOT AVBL 64 E VA BEACH 1250 53 51 360/ 14/ 17 1020.6 2/ 3 DUCK 1248 52 48 350/ 12/ 13 1021.0 2 E DUCK 1300 48 N/A 1/ 7 OREGON INLET 1242 52 51 340/ 9/ 14 1021.2 13E OREGON INLT NOT AVBL HATTERAS CG 1248 54 57 350/ 13/ 15 1020.8 DIAMOND BUOY 1250 61 64 10/ 17/ 19 1020.7 2/ 3 2/ 6 CAPE LOOKOUT 1200 54 360/ 13/ 15 1020.0 BEAUFORT LAB 1248 54 53 10/ 10/ 12 1020.3 30 SE NEW RVR IN 1208 59 20/ 17/ 21 1020.2 30 SE NEW RVR IN 1243 63 N/A 3/ 3 27 SE WRIGHTSVLE 1208 58 61 20/ 14/ 19 1019.5 5 SE WRIGHTSVLE 1208 55 56 10/ 10/ 16 1020.8 225 S CAPE HAT 1150 71 71 10/ 17/ 19 1017.7 5/ 7 41 SE CHARLESTON 1150 63 69 360/ 12/ 14 1019.5 1/ 3 $$

USA.gov is the U.S. government's official web portal to all federal, state and local government web resources and services.